Ainsworth, NE

9:23 AM CDT on July 24, 2016 (GMT -0500)
Ainsworth Municipal

Weather History for KANW - January, 2013

Change the Weather History Date:

Friday, January 25, 2013

  Actual Average Record
Temperature  
Mean Temperature 37 °F -  
Max Temperature 52 °F 33 °F 60 °F (2002)
Min Temperature 21 °F 15 °F -11 °F (1997)
Degree Days  
Heating Degree Days 28    
Moisture  
Dew Point 20 °F    
Average Humidity 60    
Maximum Humidity 85    
Minimum Humidity 26    
Precipitation  
Precipitation 0.00 in - - ()
Sea Level Pressure  
Sea Level Pressure 30.10 in    
Wind  
Wind Speed 8 mph (WNW)    
Max Wind Speed 13 mph    
Max Gust Speed -    
Visibility 10 miles    
Events      
Averages and records for this station are not official NWS values.
T = Trace of Precipitation, MM = Missing Value Source: NWS Daily Summary

Daily Weather History Graph

Daily Weather History Graph

Search for Another Location

Airport or City:

Trip Planner

Search our weather history database for the weather conditions in past years. The results will help you decide how hot, cold, wet, or windy it might be!

Date:

Astronomy

Jan. 25, 2013 Rise Set
Actual Time 8:00 AM CST 5:44 PM CST
Civil Twilight 7:29 AM CST 6:15 PM CST
Nautical Twilight 6:55 AM CST 6:49 PM CST
Astronomical Twilight 6:22 AM CST 7:22 PM CST
Moon 4:43 PM CST (1/25) 6:41 AM CST (1/25)
Length of Visible Light 10h 45m
Length of Day
9h 44m
Waxing Gibbous, 98% of the Moon is Illuminated
Jan 25
Waxing Gibbous
Jan 26
Full
Feb 3
Last Quarter
Feb 10
New
Feb 17
First Quarter

Hourly Weather History & Observations

Time (CST) Temp. Windchill Dew Point Humidity Pressure Visibility Wind Dir Wind Speed Gust Speed Precip Events Conditions
12:15 AM 31.3 °F 23.3 °F 21.2 °F 66% 30.06 in 10.0 mi WNW 9.2 mph - N/A   Overcast
12:35 AM 32.2 °F 25.0 °F 21.4 °F 64% 30.05 in 10.0 mi WNW 8.1 mph - N/A   Overcast
12:55 AM 32.5 °F 24.8 °F 21.7 °F 64% 30.06 in 10.0 mi WNW 9.2 mph - N/A   Overcast
1:15 AM 32.5 °F 25.5 °F 21.2 °F 63% 30.06 in 10.0 mi WNW 8.1 mph - N/A   Mostly Cloudy
1:35 AM 32.2 °F 23.2 °F 21.2 °F 64% 30.06 in 10.0 mi NW 11.5 mph - N/A   Clear
1:55 AM 31.8 °F 22.3 °F 21.0 °F 64% 30.07 in 10.0 mi NW 12.7 mph - N/A   Clear
2:15 AM 31.1 °F 23.7 °F 21.0 °F 66% 30.07 in 10.0 mi WNW 8.1 mph - N/A   Clear
2:35 AM 29.1 °F 20.6 °F 20.3 °F 70% 30.08 in 10.0 mi WNW 9.2 mph - N/A   Clear
2:55 AM 29.5 °F 21.8 °F 20.7 °F 70% 30.08 in 10.0 mi WNW 8.1 mph - N/A   Clear
3:15 AM 30.2 °F 22.6 °F 21.0 °F 69% 30.08 in 10.0 mi WNW 8.1 mph - N/A   Clear
3:35 AM 29.8 °F 23.0 °F 20.7 °F 69% 30.08 in 10.0 mi West 6.9 mph - N/A   Clear
3:55 AM 27.1 °F 23.2 °F 19.4 °F 73% 30.08 in 10.0 mi West 3.5 mph - N/A   Clear
4:15 AM 26.1 °F 16.2 °F 19.6 °F 76% 30.09 in 10.0 mi WSW 10.4 mph - N/A   Clear
4:35 AM 25.9 °F 18.2 °F 19.4 °F 76% 30.09 in 10.0 mi West 6.9 mph - N/A   Clear
4:55 AM 25.5 °F 16.2 °F 19.4 °F 78% 30.09 in 10.0 mi West 9.2 mph - N/A   Clear
5:15 AM 24.6 °F 15.1 °F 19.2 °F 80% 30.10 in 10.0 mi West 9.2 mph - N/A   Clear
5:35 AM 25.0 °F 15.5 °F 19.4 °F 79% 30.09 in 10.0 mi West 9.2 mph - N/A   Clear
5:55 AM 24.6 °F 16.7 °F 19.0 °F 79% 30.10 in 10.0 mi West 6.9 mph - N/A   Clear
6:15 AM 24.8 °F 16.9 °F 19.4 °F 80% 30.10 in 10.0 mi West 6.9 mph - N/A   Clear
6:35 AM 24.4 °F 18.6 °F 19.0 °F 80% 30.10 in 10.0 mi West 4.6 mph - N/A   Clear
6:55 AM 25.3 °F 18.5 °F 19.4 °F 78% 30.09 in 10.0 mi West 5.8 mph - N/A   Clear
7:15 AM 23.0 °F 17.0 °F 17.6 °F 80% 30.10 in 10.0 mi West 4.6 mph - N/A   Clear
7:35 AM 25.2 °F 17.3 °F 18.9 °F 77% 30.10 in 10.0 mi West 6.9 mph - N/A   Clear
7:55 AM 24.8 °F 17.9 °F 18.7 °F 78% 30.10 in 10.0 mi West 5.8 mph - N/A   Clear
8:15 AM 25.3 °F 18.5 °F 19.0 °F 77% 30.10 in 10.0 mi West 5.8 mph - N/A   Clear
8:35 AM 26.4 °F 18.9 °F 19.8 °F 76% 30.11 in 10.0 mi West 6.9 mph - N/A   Clear
8:55 AM 30.0 °F 23.2 °F 21.2 °F 70% 30.11 in 10.0 mi West 6.9 mph - N/A   Clear
9:15 AM 31.6 °F 28.3 °F 22.3 °F 68% 30.12 in 10.0 mi West 3.5 mph - N/A   Clear
9:35 AM 33.1 °F 27.7 °F 23.0 °F 66% 30.13 in 10.0 mi West 5.8 mph - N/A   Clear
9:55 AM 35.8 °F 30.1 °F 23.4 °F 61% 30.14 in 10.0 mi West 6.9 mph - N/A   Clear
10:15 AM 37.9 °F 33.5 °F 23.2 °F 55% 30.15 in 10.0 mi West 5.8 mph - N/A   Clear
10:35 AM 40.8 °F 35.6 °F 22.6 °F 48% 30.15 in 10.0 mi West 8.1 mph - N/A   Clear
10:55 AM 43.0 °F 37.7 °F 22.8 °F 45% 30.16 in 10.0 mi West 9.2 mph - N/A   Clear
11:15 AM 44.8 °F 41.0 °F 22.8 °F 42% 30.16 in 10.0 mi West 6.9 mph - N/A   Clear
11:35 AM 46.2 °F 44.1 °F 21.6 °F 38% 30.15 in 10.0 mi West 4.6 mph - N/A   Clear
11:55 AM 47.8 °F - 20.7 °F 34% 30.14 in 10.0 mi WNW 6.9 mph - N/A   Clear
12:15 PM 48.6 °F - 18.3 °F 30% 30.13 in 10.0 mi NW 8.1 mph - N/A   Clear
12:35 PM 49.5 °F - 17.6 °F 28% 30.12 in 10.0 mi NW 8.1 mph - N/A   Clear
12:55 PM 50.2 °F - 17.6 °F 28% 30.10 in 10.0 mi NW 4.6 mph - N/A   Clear
1:15 PM 51.3 °F - 17.8 °F 27% 30.10 in 10.0 mi WNW 4.6 mph - N/A   Clear
1:35 PM 51.6 °F - 18.1 °F 27% 30.09 in 10.0 mi West 6.9 mph - N/A   Clear
1:55 PM 52.3 °F - 18.3 °F 26% 30.09 in 10.0 mi WNW 5.8 mph - N/A   Clear
2:15 PM 52.7 °F - 18.5 °F 26% 30.08 in 10.0 mi WNW 5.8 mph - N/A   Clear
2:35 PM 52.7 °F - 18.7 °F 26% 30.08 in 10.0 mi West 6.9 mph - N/A   Clear
2:55 PM 52.5 °F - 18.9 °F 27% 30.07 in 10.0 mi West 9.2 mph - N/A   Clear
3:15 PM 50.9 °F - 18.9 °F 28% 30.07 in 10.0 mi WSW 6.9 mph - N/A   Clear
3:35 PM 51.3 °F - 19.6 °F 29% 30.07 in 10.0 mi SW 4.6 mph - N/A   Clear
3:55 PM 52.0 °F - 19.4 °F 28% 30.07 in 10.0 mi Calm Calm - N/A   Clear
4:15 PM 51.1 °F - 19.4 °F 29% 30.07 in 10.0 mi North 5.8 mph - N/A   Clear
4:35 PM 50.9 °F - 19.4 °F 29% 30.08 in 10.0 mi NNE 4.6 mph - N/A   Clear
4:55 PM 49.5 °F - 19.6 °F 31% 30.08 in 10.0 mi NE 5.8 mph - N/A   Clear
5:15 PM 46.2 °F 44.1 °F 19.4 °F 34% 30.08 in 10.0 mi ENE 4.6 mph - N/A   Clear
5:35 PM 41.9 °F 37.5 °F 18.3 °F 39% 30.08 in 10.0 mi ENE 6.9 mph - N/A   Clear
5:55 PM 38.7 °F 31.4 °F 21.2 °F 50% 30.08 in 10.0 mi East 11.5 mph - N/A   Clear
6:15 PM 36.3 °F 29.5 °F 21.2 °F 54% 30.08 in 10.0 mi East 9.2 mph - N/A   Clear
6:35 PM 33.3 °F 25.7 °F 20.3 °F 59% 30.09 in 10.0 mi East 9.2 mph - N/A   Clear
6:55 PM 31.6 °F 25.1 °F 19.9 °F 62% 30.10 in 10.0 mi East 6.9 mph - N/A   Clear
7:15 PM 28.9 °F 22.8 °F 19.2 °F 67% 30.10 in 10.0 mi East 5.8 mph - N/A   Clear
7:35 PM 29.1 °F 23.0 °F 19.4 °F 67% 30.10 in 10.0 mi East 5.8 mph - N/A   Clear
7:55 PM 27.0 °F 21.6 °F 19.0 °F 72% 30.10 in 10.0 mi ENE 4.6 mph - N/A   Clear
8:15 PM 27.3 °F 19.1 °F 20.3 °F 75% 30.11 in 10.0 mi East 8.1 mph - N/A   Clear
8:35 PM 26.6 °F 17.5 °F 19.9 °F 76% 30.12 in 10.0 mi East 9.2 mph - N/A   Clear
8:55 PM 25.7 °F 19.0 °F 19.4 °F 77% 30.11 in 10.0 mi ENE 5.8 mph - N/A   Clear
9:15 PM 24.8 °F 16.1 °F 19.4 °F 80% 30.10 in 10.0 mi East 8.1 mph - N/A   Clear
9:35 PM 23.9 °F 15.8 °F 18.9 °F 81% 30.10 in 10.0 mi East 6.9 mph - N/A   Clear
9:55 PM 23.4 °F 15.2 °F 18.7 °F 82% 30.10 in 10.0 mi East 6.9 mph - N/A   Clear
10:15 PM 23.5 °F 14.5 °F 19.0 °F 83% 30.10 in 10.0 mi East 8.1 mph - N/A   Clear
10:35 PM 23.5 °F 15.4 °F 19.0 °F 83% 30.10 in 10.0 mi ESE 6.9 mph - N/A   Clear
10:55 PM 23.0 °F 14.7 °F 18.9 °F 84% 30.10 in 10.0 mi ESE 6.9 mph - N/A   Clear
11:15 PM 22.3 °F 14.9 °F 18.1 °F 84% 30.09 in 10.0 mi ESE 5.8 mph - N/A   Clear
11:35 PM 22.1 °F 13.7 °F 18.1 °F 85% 30.10 in 10.0 mi East 6.9 mph - N/A   Clear
11:55 PM 21.9 °F 13.4 °F 18.0 °F 85% 30.10 in 10.0 mi ESE 6.9 mph - N/A   Clear